Hourly Data Report for April 17, 2019

MIRAMICHI RCS
NEW BRUNSWICK
Current Station Operator: ECCC - MSC

47°00'34.000" N
65°27'54.000" W
33.00 m
8100989
71744
ACQ

Download Data

Hourly Data (April 2019)
Hourly Data Report for April 17, 2019
TIME
LST
Temp Definition
°C
Dew Point Definition
°C
Rel Hum Definition
%
Precip. Amount Definition
mm

Wind Dir Definition
10's deg

Wind Spd Definition
km/h
Visibility Definition
km
Stn Press Definition
kPa
Hmdx Definition


Wind Chill Definition


Weather Definition


00:00 1.2 -0.4 89 0.2 34 12   100.11     LegendNANA
01:00 1.1 -0.4 90 0.0 33 10   100.21     LegendNANA
02:00 1.1 -0.7 88 0.2 34 12   100.32     LegendNANA
03:00 1.1 -1.2 84 0.0 34 13   100.44     LegendNANA
04:00 0.8 -1.2 87 0.0 33 9   100.54     LegendNANA
05:00 0.6 -2.2 81 0.0 34 10   100.65     LegendNANA
06:00 0.5 -2.2 82 0.0 33 8   100.75     LegendNANA
07:00 1.3 -2.9 74 0.0 34 7   100.86     LegendNANA
08:00 2.0 -4.2 64 0.0 34 14   100.94     LegendNANA
09:00 2.4 -5.5 56 0.0 1 14   101.02     LegendNANA
10:00 3.1 -5.9 52 0.0 1 12   101.10     LegendNANA
11:00 4.1 -5.9 48 0.0 2 10   101.13     LegendNANA
12:00 5.6 -6.4 42 0.0 34 8   101.17     LegendNANA
13:00 6.6 -6.1 40 0.0 34 11   101.18     LegendNANA
14:00 7.8 -6.7 35 0.0 34 7   101.22     LegendNANA
15:00 8.9 -6.6 33 0.0 34 9   101.24     LegendNANA
16:00 9.1 -5.8 34 0.0 5 10   101.29     LegendNANA
17:00 8.9 -5.3 36 0.0 8 10   101.35     LegendNANA
18:00 6.6 -3.3 49 0.0 12 16   101.43     LegendNANA
19:00 3.7 -2.9 62 0.0 10 11   101.54     LegendNANA
20:00 0.7 -3.5 73 0.0 9 13   101.68     LegendNANA
21:00 -0.1 -4.7 71 0.0 7 7   101.77   -3 LegendNANA
22:00 -1.2 -4.5 78 0.0 6 4   101.81   -3 LegendNANA
23:00 -1.8 -4.3 83 0.0 30 2   101.90   -3 LegendNANA

Notes on Data Quality.

Legend

  • E = Estimated
  • M = Missing
  • NA = Not Available*
  • [empty] = Indicates an unobserved value
Date modified: